EW6158 Weather Reports


time (UTC)temp
C
wind
direction
speed
KPH
gust
KPH
rain 1hr
cm
rain 24hr
cm
rain mn
cm
humidity
%
barometer
mb
20260502123043 10 188 0.0 0.0 0.00 0.00 0.00 73 1019.8
20260502121541 10 188 0.0 0.0 0.00 0.00 0.00 74 1019.5
20260502114600 9 189 0.0 0.0 0.00 0.00 0.00 75 1019.2
20260502113043 10 189 0.0 0.0 0.00 0.00 0.00 76 1019.1
20260502111536 10 68 0.0 0.0 0.00 0.00 0.00 75 1019.3
20260502110034 10 38 0.0 0.0 0.00 0.00 0.00 72 1019.3
20260502104532 10 38 0.0 0.0 0.00 0.00 0.00 71 1019.6
20260502103030 10 34 1.6 6.4 0.00 0.00 0.00 69 1019.8
20260502101526 12 274 0.0 4.8 0.00 0.00 0.00 62 1019.6
20260502091519 12 266 3.2 6.4 0.00 0.00 0.00 62 1018.4
20260502071512 12 190 1.6 4.8 0.00 0.00 0.00 64 1018.3
20260502070011 12 176 1.6 4.8 0.00 0.00 0.00 63 1018.2
20260502064514 12 172 0.0 3.2 0.00 0.00 0.00 63 1018.5
20260502063011 12 172 0.0 1.6 0.00 0.00 0.00 62 1018.5
20260502061505 12 172 0.0 1.6 0.00 0.00 0.00 61 1018.6
20260502060104 12 103 0.0 0.0 0.00 0.00 0.00 60 1018.5
20260502054506 12 103 0.0 1.6 0.00 0.00 0.00 60 1018.6
20260502053001 12 103 0.0 1.6 0.00 0.00 0.00 60 1018.5
20260502051559 13 103 0.0 0.0 0.00 0.00 0.00 59 1018.5
20260502050056 13 103 0.0 0.0 0.00 0.00 0.00 58 1018.4
20260502044610 13 34 0.0 0.0 0.00 0.00 0.00 58 1018.4
20260502043124 13 34 0.0 0.0 0.00 0.00 0.00 57 1018.4
20260502041601 13 34 0.0 0.0 0.00 0.00 0.00 57 1018.4
20260502040057 13 34 0.0 0.0 0.00 0.00 0.00 56 1018.4
20260502034554 13 34 0.0 0.0 0.00 0.00 0.00 55 1018.2
20260502033054 13 34 0.0 0.0 0.00 0.00 0.00 53 1018.1
20260502031552 14 34 0.0 0.0 0.00 0.00 0.00 52 1017.9
20260502030056 15 34 0.0 0.0 0.00 0.00 0.00 50 1017.8
20260502024552 15 34 0.0 0.0 0.00 0.00 0.00 48 1017.6
20260502023056 15 34 0.0 0.0 0.00 0.00 0.00 48 1017.6
20260502021554 16 34 0.0 0.0 0.00 0.00 0.00 47 1017.4
20260502020050 16 34 0.0 0.0 0.00 0.00 0.00 45 1017.3
20260502014550 16 34 0.0 0.0 0.00 0.00 0.00 41 1017.1
20260502013057 17 34 0.0 0.0 0.00 0.00 0.00 38 1016.9
20260502011557 17 34 0.0 1.6 0.00 0.00 0.00 38 1016.7
20260502010054 18 33 0.0 0.0 0.00 0.00 0.00 37 1016.5
20260502004549 18 56 1.6 4.8 0.00 0.00 0.00 35 1016.4
20260502003049 18 43 1.6 6.4 0.00 0.00 0.00 34 1016.3
20260502001547 18 34 1.6 6.4 0.00 0.00 0.00 33 1016.3
20260502000047 19 340 1.6 9.7 0.00 0.00 0.00 34 1016.2
20260501234546 19 51 3.2 8.0 0.00 0.00 0.00 35 1016.2
20260501233046 20 24 3.2 6.4 0.00 0.00 0.00 33 1016.0
20260501231545 20 5 3.2 8.0 0.00 0.00 0.00 34 1015.9
20260501230044 20 43 3.2 8.0 0.00 0.00 0.00 34 1015.7
20260501224544 20 25 4.8 14.5 0.00 0.00 0.00 32 1015.7
20260501223043 20 21 1.6 8.0 0.00 0.00 0.00 32 1015.5
20260501221542 20 38 4.8 12.9 0.00 0.00 0.00 32 1015.5
20260501220041 20 38 1.6 12.9 0.00 0.00 0.00 34 1015.5
20260501214539 20 91 0.0 9.7 0.00 0.00 0.00 35 1015.5
20260501213038 20 15 3.2 11.3 0.00 0.00 0.00 37 1015.6
20260501211538 20 9 3.2 9.7 0.00 0.00 0.00 38 1015.7
20260501210037 20 60 4.8 12.9 0.00 0.00 0.00 35 1016.0
20260501204545 20 34 1.6 8.0 0.00 0.00 0.00 35 1016.0
20260501203032 20 65 3.2 11.3 0.00 0.00 0.00 35 1016.2
20260501201530 20 34 4.8 12.9 0.00 0.00 0.00 35 1016.4
20260501200029 21 30 4.8 11.3 0.00 0.00 0.00 36 1016.6
20260501194528 20 352 1.6 14.5 0.00 0.00 0.00 39 1016.8
20260501193025 20 37 3.2 9.7 0.00 0.00 0.00 39 1017.0
20260501191534 21 14 6.4 11.3 0.00 0.00 0.00 38 1017.1
20260501190022 20 20 4.8 12.9 0.00 0.00 0.00 40 1017.3
20260501184537 19 48 3.2 12.9 0.00 0.00 0.00 44 1017.5
20260501183025 20 5 3.2 9.7 0.00 0.00 0.00 44 1017.6
20260501181519 20 67 3.2 11.3 0.00 0.00 0.00 44 1018.0
20260501180015 19 80 3.2 9.7 0.00 0.00 0.00 46 1018.2
20260501174516 19 74 3.2 9.7 0.00 0.00 0.00 47 1018.5
20260501173013 18 80 1.6 8.0 0.00 0.00 0.00 52 1018.5
20260501171511 18 71 1.6 8.0 0.00 0.00 0.00 54 1018.5
20260501170011 19 21 1.6 9.7 0.00 0.00 0.00 54 1018.5
20260501164508 18 20 1.6 9.7 0.00 0.00 0.00 55 1018.5
20260501163008 18 28 3.2 9.7 0.00 0.00 0.00 56 1018.4
20260501161504 17 354 3.2 8.0 0.00 0.00 0.00 56 1018.4
20260501154603 17 109 3.2 11.3 0.00 0.00 0.00 59 1018.1
20260501153057 17 82 3.2 12.9 0.00 0.00 0.00 60 1018.1
20260501151601 16 68 3.2 9.7 0.00 0.00 0.00 63 1018.1
20260501150051 16 68 3.2 9.7 0.00 0.00 0.00 66 1018.1